TimeIST,TemperatureF,Dew PointF,Humidity,Sea Level PressureIn,VisibilityMPH,Wind Direction,Wind SpeedMPH,Gust SpeedMPH,PrecipitationIn,Events,Conditions,WindDirDegrees,DateUTC
12:00 AM,75.2,57.2,53,29.89,1.6,Calm,Calm,-,N/A,,Haze,0,2012-10-12 18:30:00
1:00 AM,73.4,57.2,57,29.89,1.6,Calm,Calm,-,N/A,,Haze,0,2012-10-12 19:30:00
2:00 AM,73.4,57.2,57,29.86,1.6,Calm,Calm,-,N/A,,Haze,0,2012-10-12 20:30:00
2:30 AM,78,54,33,29.80,1,Calm,Calm,,,,Haze,,2012-10-12 21:00:00
2:30 AM,77.0,57.2,50,29.86,1.6,Calm,Calm,-,N/A,,Haze,0,2012-10-12 21:00:00
3:00 AM,78.8,57.2,47,29.86,1.6,Calm,Calm,-,N/A,,Haze,0,2012-10-12 21:30:00
4:00 AM,78.8,57.2,47,29.86,1.6,Calm,Calm,-,N/A,,Haze,0,2012-10-12 22:30:00
5:00 AM,69.8,57.2,64,29.86,1.6,Calm,Calm,-,N/A,,Haze,0,2012-10-12 23:30:00
5:30 AM,72,56,47,29.81,1,Calm,Calm,,,,Haze,,2012-10-13 00:00:00
6:00 AM,69.8,55.4,60,29.89,1.6,Calm,Calm,-,N/A,,Haze,0,2012-10-13 00:30:00
7:00 AM,68.0,55.4,64,29.89,1.6,Calm,Calm,-,N/A,,Haze,0,2012-10-13 01:30:00
8:00 AM,75.2,55.4,50,29.92,1.6,Calm,Calm,-,N/A,,Haze,0,2012-10-13 02:30:00
8:30 AM,81,57,34,29.83,1,Calm,Calm,,,,Haze,,2012-10-13 03:00:00
9:00 AM,82.4,57.2,42,29.92,1.6,Calm,Calm,-,N/A,,Haze,0,2012-10-13 03:30:00
10:00 AM,84.2,55.4,37,29.92,1.9,Calm,Calm,-,N/A,,Haze,0,2012-10-13 04:30:00
11:00 AM,91.4,55.4,29,29.95,1.9,WNW,3.5,-,N/A,,Haze,300,2012-10-13 05:30:00
11:30 AM,95,53,15,29.83,1,Calm,Calm,,,,Haze,,2012-10-13 06:00:00
12:00 PM,91.4,51.8,26,29.92,1.9,WNW,4.6,-,N/A,,Haze,290,2012-10-13 06:30:00
1:00 PM,93.2,50.0,23,29.89,2.5,WNW,6.9,-,N/A,,Haze,290,2012-10-13 07:30:00
2:30 PM,95.0,50.0,22,29.86,2.5,Variable,2.3,-,N/A,,Haze,0,2012-10-13 09:00:00
3:00 PM,93.2,50.0,23,29.86,2.5,Variable,4.6,-,N/A,,Haze,0,2012-10-13 09:30:00
3:30 PM,93.2,50.0,23,29.86,2.5,Variable,1.2,-,N/A,,Haze,0,2012-10-13 10:00:00
4:00 PM,93.2,50.0,23,29.86,2.5,NW,4.6,-,N/A,,Haze,310,2012-10-13 10:30:00
4:30 PM,93.2,50.0,23,29.86,2.5,Variable,2.3,-,N/A,,Haze,0,2012-10-13 11:00:00
5:00 PM,91.4,51.8,26,29.86,2.5,Variable,2.3,-,N/A,,Haze,0,2012-10-13 11:30:00
5:30 PM,91.4,51.8,26,29.86,2.5,Calm,Calm,-,N/A,,Haze,0,2012-10-13 12:00:00
6:00 PM,87.8,51.8,29,29.89,2.2,Calm,Calm,-,N/A,,Haze,0,2012-10-13 12:30:00
7:00 PM,82.4,51.8,35,29.89,1.6,Calm,Calm,-,N/A,,Haze,0,2012-10-13 13:30:00
7:30 PM,80.6,59.0,48,29.89,1.6,Calm,Calm,-,N/A,,Haze,0,2012-10-13 14:00:00
8:00 PM,78.8,59.0,51,29.92,1.6,Calm,Calm,-,N/A,,Haze,0,2012-10-13 14:30:00
8:30 PM,80,60,41,29.84,1,Calm,Calm,,,,Haze,,2012-10-13 15:00:00
9:00 PM,80.6,60.8,51,29.92,1.6,Variable,3.5,-,N/A,,Haze,0,2012-10-13 15:30:00
9:30 PM,82.4,60.8,48,29.95,1.6,Variable,1.2,-,N/A,,Haze,0,2012-10-13 16:00:00
10:30 PM,80.6,60.8,51,29.95,1.6,Calm,Calm,-,N/A,,Haze,0,2012-10-13 17:00:00
11:00 PM,77.0,60.8,57,29.95,1.6,Calm,Calm,-,N/A,,Haze,0,2012-10-13 17:30:00
11:30 PM,77,56,37,29.87,2,Calm,Calm,,,,Haze,,2012-10-13 18:00:00
11:30 PM,75.2,57.2,53,29.95,1.6,Calm,Calm,-,N/A,,Haze,0,2012-10-13 18:00:00